User: anonymous   Login
Location: Unspecified
(0.0000°N, 0.0000°E)
Time: 19:06:45
(UTC+00:00)
Language:

STARLINK-32008 - Orbit

View from above orbital plane
View from above orbital plane
View from above satellite
View from above satellite

Ground track
Ground track

The orbit is defined by the following mean orbital elements,

1 60028U          26145.09950339 +.00000000 +00000-0 +14939-4 0 00005
2 60028  53.1603  80.6000 0001346  66.4249 293.6893 15.30193884    07
Epoch (UTC): 25 May 2026 02:23:17
Eccentricity: 0.0001346
inclination: 53.1603°
perigee height: 474 km
apogee height: 476 km
right ascension of ascending node: 80.6000°
argument of perigee: 66.4249°
revolutions per day: 15.30193884
mean anomaly at epoch: 293.6893°

The dashed part of the orbit path shows where the satellite is in the earth's shadow,  

DLR